Location: Coed Ely
(51.5661°N, 3.4150°W)
Time: 01:57:46
(UTC+00:00)

SJ 16-02 - Pass Details

Date: 28 January 2021
Orbit: 606 x 615 km, 75.0° (Epoch: 28 February)

Event Time Altitude Azimuth Distance (km) Brightness Sun altitude
Rises 17:30:31 0° 197° (SSW) 2,863 5.4 -5.7°
Reaches altitude 10° 17:32:45 10° 196° (SSW) 1,962 4.5 -6.0°
Maximum altitude 17:37:07 77° 111° (ESE) 631 1.3 -6.6°
Drops below altitude 10° 17:41:31 10° 26° (NNE) 1,972 3.5 -7.3°
Sets 17:43:46 0° 25° (NNE) 2,880 4.4 -7.6°
Enters shadow 17:43:48 - 25° (NNE) 2,897 4.4 -7.6°
